Content
SEND FEEDBACK

Daily
Averages
Monthly
Summary
Mexico

PUERTO MORELOS, QUINTANA ROO


Home > North America > Mexico > Quintana Roo
Elevation: 20 feet     Latitude: 20 51N     Longitude: 086 52W

WEATHER
 
SELECT A DAY
Number of Records: 163,654;   Date Range: 1/1/95 - 7/20/14
 
SHARE

PRINT THIS DATA

[ ← Previous Day ]
WEATHER ALMANAC - MARCH 8, 2013
[ Next Day → ]
[ °C ]   °F
Weather ElementAverageHighLow
Temperature68.7 °F77 °F (11:44 am)57.2 °F (3:45 am)
Dewpoint57.1 °F60.8 °F (12:43 pm)53.6 °F (3:45 am)
Humidity67.6 %94 % (5:45 am)50 % (11:44 am)
Barometer30.12 in30.17 in (9:47 am)30.08 in (2:50 am)
Wind Speed6.6 mph15 mph (8:49 am)
Weather ElementAverage
Visibility7 mi
Wind DirectionESE (98.3 °)

Weather ElementTotal
Precipitation---
Cooling Degree Days2.1 (Base 65)
Growing Degree Days17.1 (Base 50)
Averaged from 23 records on March 8, 2013
WEATHER CONDITIONS BREAKOUT
WIND DIRECTION BREAKOUT
WEATHER BY HOUR - MARCH 8, 2013
[ °C ]   °F
Local TimeTemperatureDewpointHumidityBarometerVisibilityWind DirectionWind SpeedGust SpeedPrecipitationEventsConditions
1:42 AM64.4 °F57.2 °F77 %30.11 in7.0 miNNE (20°)3.5 mphPartly Cloudy
2:50 AM60.8 °F57.2 °F88 %30.08 in7.0 miNE (40°)3.5 mphPartly Cloudy
3:45 AM57.2 °F53.6 °F88 %30.09 in7.0 miNNW (330°)4.6 mphPartly Cloudy
4:42 AM57.2 °F53.6 °F88 %30.10 in7.0 miNNW (330°)3.5 mphScattered Clouds
5:45 AM57.2 °F55.4 °F94 %30.10 in7.0 miNorth (360°)3.5 mphScattered Clouds
6:45 AM60.8 °F53.6 °F77 %30.13 in7.0 miENE (60°)2.3 mphScattered Clouds
7:47 AM69.8 °F59.0 °F68 %30.15 in7.0 miNNE (20°)3.5 mphMostly Cloudy
8:49 AM73.4 °F57.2 °F57 %30.16 in7.0 miENE (60°)15.0 mphScattered Clouds
9:47 AM75.2 °F59.0 °F57 %30.17 in7.0 miNNE (30°)10.4 mphScattered Clouds
10:49 AM75.2 °F57.2 °F53 %30.16 in7.0 miNE (40°)11.5 mphMostly Cloudy
11:44 AM77.0 °F57.2 °F50 %30.15 in7.0 miNNE (30°)6.9 mphMostly Cloudy
12:43 PM75.2 °F60.8 °F61 %30.11 in7.0 miENE (60°)11.5 mphMostly Cloudy
1:41 PM75.2 °F59.0 °F57 %30.10 in7.0 miEast (90°)10.4 mphMostly Cloudy
2:47 PM73.4 °F59.0 °F61 %30.15 in7.0 miESE (120°)5.8 mphMostly Cloudy
3:43 PM73.4 °F59.0 °F61 %30.08 in7.0 miENE (70°)9.2 mphScattered Clouds
4:41 PM73.4 °F59.0 °F61 %30.09 in7.0 miENE (60°)8.1 mphScattered Clouds
5:50 PM71.6 °F59.0 °F64 %30.10 in7.0 miENE (70°)8.1 mphScattered Clouds
6:43 PM69.8 °F57.2 °F64 %30.11 in7.0 miENE (60°)5.8 mphScattered Clouds
7:48 PM68.0 °F53.6 °F60 %30.12 in7.0 miEast (80°)2.3 mphScattered Clouds
8:48 PM68.0 °F55.4 °F64 %30.13 in7.0 miNE (40°)4.6 mphPartly Cloudy
9:48 PM68.0 °F55.4 °F64 %30.12 in7.0 miEast (80°)5.8 mphPartly Cloudy
10:47 PM68.0 °F57.2 °F68 %30.11 in7.0 miEast (100°)5.8 mphPartly Cloudy
11:46 PM68.0 °F59.0 °F73 %30.08 in7.0 miESE (110°)5.8 mphClear
Hourly data recorded from MMUN, located miles away from Puerto Morelos, Quintana Roo







STORIES FROM OUR PARTNERS